Date String (YYYY-MM-DD hh:mm:ss) UTC,Instrument flags,absolute air pressure of the measurement (hPa),sample flow rate (lpm),inlet stack bypass flow (lpm),air temperature of the measurement (°C),ambient temperature measured by the external sensor (°C),aerosol sample conditioner tube jacket temperature (°C),OPC LED temperature (°C),internal box temperature (°C),relative humidity of the measurement (%),span deviation,mass concentration of particles derived from Lorenz-Mie calculation of OPC scattering (μg/m³),mass concentration of particles derived from Lorenz-Mie calculation of OPC scattering (μg/m³),mass concentration of particles derived from Lorenz-Mie calculation of OPC scattering (μg/m³)
DateTimeUTC,F1_M11,P_M11,Q1_M11,Q2_M11,T1_M11,T2_M11,T3_M11,T4_M11,T5_M11,U1_M11,ZSPAN_M11,X0_M11,X2_M11,X1_M11
2023-10-22 13:00:00,SystemResetWarning,0827.4,5.01,000.00,029.1,027.5,000.0,037.5,030.7,15.2,0000.0,0023.60,0004.96,0002.40
2023-10-22 13:01:00,SystemResetWarning,0827.4,5.00,000.00,029.1,027.5,000.0,037.5,030.7,15.1,0000.0,0022.04,0004.87,0002.41
2023-10-22 13:02:00,SystemResetWarning,0827.4,5.00,000.00,029.1,027.5,000.0,037.5,030.7,15.0,0000.0,0021.36,0004.85,0002.41
2023-10-22 13:03:00,SystemResetWarning,0827.7,5.00,000.00,029.1,027.5,000.0,037.5,030.7,15.0,0000.0,0020.71,0004.84,0002.39
2023-10-22 13:04:00,SystemResetWarning,0827.6,5.00,000.00,029.1,027.5,000.0,037.5,030.7,15.0,0000.0,0020.12,0004.87,0002.40
2023-10-22 13:05:00,SystemResetWarning,0827.5,5.00,000.00,029.1,027.5,000.0,037.5,030.7,14.9,0000.0,0019.55,0004.88,0002.37
2023-10-22 13:06:00,SystemResetWarning,0827.6,5.00,000.00,029.0,027.5,000.0,037.5,030.7,14.9,0000.0,0018.82,0004.84,0002.35
2023-10-22 13:07:00,SystemResetWarning,0827.7,5.00,000.00,029.0,027.5,000.0,037.5,030.7,15.0,0000.0,0018.68,0004.81,0002.32
2023-10-22 13:08:00,SystemResetWarning,0827.9,5.00,000.00,029.0,027.5,000.0,037.5,030.7,15.0,0000.0,0018.72,0004.79,0002.30
2023-10-22 13:09:00,SystemResetWarning,0827.7,5.00,000.00,029.0,027.5,000.0,037.5,030.7,15.0,0000.0,0018.15,0004.72,0002.28
2023-10-22 13:10:00,SystemResetWarning,0827.4,5.00,000.00,029.0,027.5,000.0,037.5,030.7,15.0,0000.0,0018.47,0004.67,0002.25
2023-10-22 13:11:00,SystemResetWarning,0827.4,4.99,000.00,029.0,027.5,000.0,037.5,030.7,15.1,0000.0,0018.34,0004.59,0002.21
2023-10-22 13:12:00,SystemResetWarning,0827.4,4.99,000.00,029.0,027.5,000.0,037.5,030.6,15.2,0000.0,0018.46,0004.53,0002.18
2023-10-22 13:13:00,SystemResetWarning,0827.4,4.99,000.00,029.0,027.5,000.0,037.5,030.7,15.3,0000.0,0018.88,0004.60,0002.19
2023-10-22 13:14:00,SystemResetWarning,0827.4,5.00,000.00,029.0,027.5,000.0,037.5,030.6,15.2,0000.0,0018.89,0004.65,0002.20
2023-10-22 13:15:00,SystemResetWarning,0827.4,5.01,000.00,029.0,027.4,000.0,037.5,030.6,15.0,0000.0,0018.77,0004.69,0002.19
2023-10-22 13:16:00,SystemResetWarning,0827.4,5.01,000.00,029.0,027.4,000.0,037.5,030.6,14.5,0000.0,0019.14,0004.70,0002.18
2023-10-22 13:17:00,SystemResetWarning,0827.4,5.00,000.00,029.0,027.4,000.0,037.5,030.6,14.5,0000.0,0019.25,0004.68,0002.18
2023-10-22 13:18:00,SystemResetWarning,0827.6,5.00,000.00,029.0,027.4,000.0,037.5,030.6,14.6,0000.0,0020.47,0004.69,0002.19
2023-10-22 13:19:00,SystemResetWarning,0827.7,5.00,000.00,029.0,027.4,000.0,037.5,030.6,14.5,0000.0,0020.23,0004.68,0002.19
2023-10-22 13:20:00,SystemResetWarning,0827.6,4.99,000.00,029.0,027.3,000.0,037.5,030.6,14.5,0000.0,0020.25,0004.75,0002.19
2023-10-22 13:21:00,SystemResetWarning,0827.4,4.99,000.00,029.0,027.3,000.0,037.5,030.6,14.7,0000.0,0019.34,0004.76,0002.17
2023-10-22 13:22:00,SystemResetWarning,0827.4,5.00,000.00,029.0,027.3,000.0,037.5,030.6,14.6,0000.0,0018.07,0004.83,0002.20
2023-10-22 13:23:00,SystemResetWarning,0827.4,5.01,000.00,029.0,027.3,000.0,037.5,030.6,14.3,0000.0,0018.28,0004.89,0002.23
2023-10-22 13:24:00,SystemResetWarning,0827.5,5.01,000.00,029.0,027.3,000.0,037.4,030.6,14.2,0000.0,0018.76,0004.84,0002.21
2023-10-22 13:25:00,SystemResetWarning,0827.4,4.99,000.00,028.9,027.3,000.0,037.4,030.5,14.3,0000.0,0018.39,0004.76,0002.19
2023-10-22 13:26:00,SystemResetWarning,0828.0,4.99,000.00,028.9,027.3,000.0,037.4,030.5,14.2,0000.0,0018.20,0004.75,0002.19
2023-10-22 13:27:00,SystemResetWarning,0827.9,4.99,000.00,028.9,027.3,000.0,037.4,030.5,14.2,0000.0,0018.10,0004.72,0002.19
2023-10-22 13:28:00,SystemResetWarning,0827.8,5.01,000.00,028.9,027.3,000.0,037.4,030.5,14.3,0000.0,0018.46,0004.80,0002.19
2023-10-22 13:29:00,SystemResetWarning,0827.6,5.01,000.00,028.9,027.3,000.0,037.4,030.5,14.2,0000.0,0018.52,0004.83,0002.18
2023-10-22 13:30:00,SystemResetWarning,0827.4,5.01,000.00,028.9,027.3,000.0,037.4,030.5,14.1,0000.0,0018.18,0004.85,0002.19
2023-10-22 13:31:00,SystemResetWarning,0827.5,5.00,000.00,028.9,027.3,000.0,037.4,030.5,14.2,0000.0,0017.63,0004.83,0002.22
2023-10-22 13:32:00,SystemResetWarning,0827.8,4.99,000.00,028.9,027.3,000.0,037.4,030.5,14.3,0000.0,0017.20,0004.76,0002.21
2023-10-22 13:33:00,SystemResetWarning,0827.7,4.99,000.00,028.9,027.2,000.0,037.4,030.5,14.3,0000.0,0017.64,0004.68,0002.20
2023-10-22 13:34:00,SystemResetWarning,0827.4,5.01,000.00,028.9,027.2,000.0,037.4,030.5,14.3,0000.0,0018.37,0004.67,0002.17
2023-10-22 13:35:00,SystemResetWarning,0827.5,5.01,000.00,028.9,027.2,000.0,037.4,030.5,14.3,0000.0,0017.85,0004.67,0002.16
2023-10-22 13:36:00,SystemResetWarning,0827.5,5.01,000.00,028.9,027.2,000.0,037.4,030.5,14.3,0000.0,0018.60,0004.69,0002.16
2023-10-22 13:37:00,SystemResetWarning,0827.5,5.00,000.00,028.9,027.3,000.0,037.4,030.5,14.3,0000.0,0019.99,0004.72,0002.16
2023-10-22 13:38:00,SystemResetWarning,0827.5,5.01,000.00,028.9,027.3,000.0,037.4,030.5,14.3,0000.0,0019.97,0004.64,0002.17
2023-10-22 13:39:00,SystemResetWarning,0827.5,4.99,000.00,028.9,027.3,000.0,037.4,030.5,14.3,0000.0,0019.52,0004.54,0002.16
2023-10-22 13:40:00,SystemResetWarning,0827.8,4.99,000.00,028.9,027.3,000.0,037.4,030.5,14.3,0000.0,0017.98,0004.49,0002.18
2023-10-22 13:41:00,SystemResetWarning,0827.6,5.00,000.00,028.9,027.2,000.0,037.4,030.4,14.3,0000.0,0018.58,0004.50,0002.19
2023-10-22 13:42:00,SystemResetWarning,0827.6,5.01,000.00,028.9,027.3,000.0,037.4,030.5,14.4,0000.0,0018.83,0004.45,0002.19
2023-10-22 13:43:00,SystemResetWarning,0827.8,5.01,000.00,028.9,027.2,000.0,037.4,030.5,14.7,0000.0,0019.78,0004.48,0002.19
2023-10-22 13:44:00,SystemResetWarning,0828.0,5.00,000.00,028.9,027.2,000.0,037.4,030.5,14.6,0000.0,0020.88,0004.52,0002.19
2023-10-22 13:45:00,SystemResetWarning,0827.5,4.99,000.00,028.9,027.2,000.0,037.4,030.4,14.4,0000.0,0020.38,0004.52,0002.19
2023-10-22 13:46:00,SystemResetWarning,0827.6,5.00,000.00,028.9,027.2,000.0,037.4,030.4,14.3,0000.0,0020.28,0004.54,0002.22
2023-10-22 13:47:00,SystemResetWarning,0827.8,5.00,000.00,028.9,027.2,000.0,037.3,030.4,14.5,0000.0,0020.42,0004.56,0002.24
2023-10-22 13:48:00,SystemResetWarning,0827.8,5.00,000.00,028.9,027.3,000.0,037.3,030.4,14.5,0000.0,0019.15,0004.51,0002.26
2023-10-22 13:49:00,SystemResetWarning,0827.8,5.00,000.00,028.8,027.3,000.0,037.3,030.5,14.4,0000.0,0019.19,0004.53,0002.26
2023-10-22 13:50:00,SystemResetWarning,0827.5,5.00,000.00,028.9,027.3,000.0,037.3,030.5,14.4,0000.0,0019.57,0004.65,0002.26
2023-10-22 13:51:00,SystemResetWarning,0827.6,5.01,000.00,028.8,027.3,000.0,037.3,030.5,14.4,0000.0,0020.12,0004.75,0002.26
2023-10-22 13:52:00,SystemResetWarning,0827.5,5.00,000.00,028.8,027.3,000.0,037.3,030.4,14.7,0000.0,0019.63,0004.78,0002.26
2023-10-22 13:53:00,SystemResetWarning,0827.5,5.00,000.00,028.8,027.3,000.0,037.3,030.4,14.9,0000.0,0019.54,0004.79,0002.30
2023-10-22 13:54:00,SystemResetWarning,0827.8,5.00,000.00,028.8,027.3,000.0,037.3,030.4,15.1,0000.0,0019.15,0004.78,0002.34
2023-10-22 13:55:00,SystemResetWarning,0827.8,5.00,000.00,028.9,027.3,000.0,037.3,030.5,15.1,0000.0,0018.87,0004.78,0002.37
2023-10-22 13:56:00,SystemResetWarning,0827.5,5.00,000.00,028.8,027.3,000.0,037.3,030.5,15.1,0000.0,0018.43,0004.78,0002.40
2023-10-22 13:57:00,SystemResetWarning,0827.6,5.00,000.00,028.8,027.3,000.0,037.3,030.4,15.1,0000.0,0018.43,0004.80,0002.42
2023-10-22 13:58:00,SystemResetWarning,0827.6,5.00,000.00,028.8,027.3,000.0,037.3,030.4,15.1,0000.0,0018.63,0004.74,0002.43
2023-10-22 13:59:00,SystemResetWarning,0827.6,5.00,000.00,028.8,027.3,000.0,037.3,030.4,15.1,0000.0,0018.32,0004.74,0002.45
